Find Starlink 33825

NORAD ID: 63505 Int'l Des: 2025-071 Owner: SPXS Country: US Constellation: starlink operational
LEOCIRCULAR

リアルタイム位置

3D地球を読み込み中...

Starlink 33825について

説明を読み込み中...

次回通過

Passes for default location (London). Set your location on the main map for personalized predictions.

高度履歴

Loading altitude history...

軌道要素

1 63505U 25071N 26124.60083848 .00012814 00000-0 44416-3 0 9994
2 63505 53.1588 239.9683 0001257 73.7565 286.3574 15.30190232 61333
Epoch: May 4, 2026 • Age: 5 hours

現在のステータス

高度 478.3 km
速度 7.63 km/s
衛星直下点 41.52°N, 127.12°E
打ち上げ日 Apr 7, 2025
運用期間 1 years
タイプ internet

技術仕様

分類 Payload
質量 575.00 kg
乾燥質量 530.00 kg
総質量 575.00 kg
長さ 0.30 m
直径 4.10 m
スパン 29.00 m
形状 Box + pan
製造者 SPXS
バスタイプ Starlink V2MO
フェーズステータス In Orbit
所有者/国 SPXS/US

Most Searched